When you browse on this site, cookies collect data to enhance your experience and personalize the content and advertising you see.
Visit our Privacy Policy to learn more. By continuing to use the site, you agree to this use of cookies and data.
  • In Hungary
  • List of Countries
  • For 7 days
  • Water Temperature
  • Satellite Maps
  • Weather Map
  • News
  • Weather Widgets
  • user-avatar
    Login

    Hourly Weather Heidelberg

    Today, 16 July, Tuesday

    Time Temperature Precipitation Wind Pressure Humidity
    00:00 +13°C° 0 mm 2 mps 734 mmHg 79%
    01:00 +13°C° 0 mm 1 mps 734 mmHg 82%
    02:00 +13°C° 0 mm 1 mps 734 mmHg 83%
    03:00 +12°C° 0 mm 1 mps 734 mmHg 84%
    04:00 +12°C° 0 mm 1 mps 734 mmHg 85%
    05:00 +13°C° 0 mm 1 mps 734 mmHg 80%
    06:00 +14°C° 0 mm 1 mps 734 mmHg 76%
    07:00 +15°C° 0 mm 1 mps 734 mmHg 68%
    08:00 +16°C° 0 mm 1 mps 734 mmHg 62%
    09:00 +19°C° 0 mm 1 mps 734 mmHg 57%
    10:00 +21°C° 0 mm 1 mps 735 mmHg 52%
    11:00 +22°C° 0 mm 1 mps 734 mmHg 47%
    12:00 +23°C° 0 mm 1 mps 734 mmHg 43%
    13:00 +25°C° 0 mm 1 mps 734 mmHg 39%
    14:00 +25°C° 0 mm 1 mps 734 mmHg 38%
    15:00 +25°C° 0 mm 1 mps 733 mmHg 37%
    16:00 +26°C° 0 mm 2 mps 733 mmHg 36%
    17:00 +25°C° 0 mm 1 mps 733 mmHg 41%
    18:00 +24°C° 0 mm 1 mps 733 mmHg 45%
    19:00 +23°C° 0 mm 1 mps 733 mmHg 50%
    20:00 +22°C° 0 mm 1 mps 733 mmHg 54%
    21:00 +20°C° 0 mm 1 mps 733 mmHg 57%
    22:00 +19°C° 0 mm 1 mps 733 mmHg 61%
    23:00 +18°C° 0 mm 1 mps 733 mmHg 64%

    Tomorrow, 17 July, Wednesday

    Time Temperature Precipitation Wind Pressure Humidity
    00:00 +16°C° 0 mm 0 mps 733 mmHg 68%
    01:00 +15°C° 0 mm 0 mps 733 mmHg 71%
    02:00 +15°C° 0 mm 1 mps 733 mmHg 74%
    03:00 +15°C° 0 mm 1 mps 732 mmHg 77%
    04:00 +14°C° 0 mm 1 mps 732 mmHg 80%
    05:00 +15°C° 0 mm 1 mps 732 mmHg 77%
    06:00 +16°C° 0 mm 1 mps 732 mmHg 74%
    07:00 +16°C° 0 mm 0 mps 732 mmHg 71%
    08:00 +18°C° 0 mm 0 mps 732 mmHg 65%
    09:00 +22°C° 0 mm 1 mps 732 mmHg 59%
    10:00 +23°C° 0 mm 1 mps 732 mmHg 53%
    11:00 +24°C° 0 mm 1 mps 732 mmHg 50%
    12:00 +25°C° 0 mm 1 mps 732 mmHg 46%
    13:00 +26°C° 0 mm 1 mps 732 mmHg 42%
    14:00 +27°C° 0 mm 2 mps 732 mmHg 41%
    15:00 +27°C° 0 mm 2 mps 731 mmHg 40%
    16:00 +27°C° 0 mm 2 mps 731 mmHg 39%
    17:00 +26°C° 0 mm 2 mps 731 mmHg 43%
    18:00 +25°C° 0 mm 2 mps 731 mmHg 48%
    19:00 +24°C° 0 mm 2 mps 731 mmHg 52%
    20:00 +23°C° 0 mm 1 mps 731 mmHg 56%
    21:00 +21°C° 0 mm 1 mps 731 mmHg 59%
    22:00 +20°C° 0 mm 1 mps 731 mmHg 63%
    23:00 +19°C° 0 mm 1 mps 731 mmHg 66%

    Day after tomorrow, 18 July, Thursday

    Time Temperature Precipitation Wind Pressure Humidity
    00:00 +19°C° 0 mm 1 mps 731 mmHg 70%
    01:00 +18°C° 0 mm 1 mps 730 mmHg 74%
    02:00 +18°C° 0 mm 1 mps 730 mmHg 76%
    03:00 +15°C° 0 mm 0 mps 730 mmHg 77%
    04:00 +15°C° 0 mm 0 mps 730 mmHg 79%
    05:00 +16°C° 0 mm 0 mps 730 mmHg 76%
    06:00 +18°C° 0 mm 1 mps 730 mmHg 73%
    07:00 +19°C° 0 mm 1 mps 730 mmHg 71%
    08:00 +21°C° 0.1 mm 1 mps 730 mmHg 64%
    09:00 +23°C° 0.1 mm 2 mps 731 mmHg 58%
    10:00 +24°C° 0.1 mm 2 mps 731 mmHg 52%
    11:00 +25°C° 0.1 mm 2 mps 730 mmHg 49%
    12:00 +26°C° 0.1 mm 2 mps 730 mmHg 45%
    13:00 +27°C° 0.1 mm 3 mps 730 mmHg 41%
    14:00 +27°C° 0 mm 3 mps 730 mmHg 41%
    15:00 +27°C° 0 mm 3 mps 730 mmHg 41%
    16:00 +27°C° 0 mm 3 mps 730 mmHg 41%
    17:00 +26°C° 0 mm 3 mps 730 mmHg 45%
    18:00 +25°C° 0 mm 2 mps 730 mmHg 50%
    19:00 +24°C° 0 mm 2 mps 730 mmHg 54%
    20:00 +23°C° 0.2 mm 2 mps 730 mmHg 61%
    21:00 +21°C° 0.2 mm 1 mps 730 mmHg 68%
    22:00 +20°C° 0.2 mm 1 mps 731 mmHg 74%
    23:00 +19°C° 0 mm 1 mps 731 mmHg 75%

    19 July, Friday

    Time Temperature Precipitation Wind Pressure Humidity
    00:00 +18°C° 0 mm 2 mps 731 mmHg 76%
    01:00 +17°C° 0 mm 2 mps 731 mmHg 77%
    02:00 +17°C° 0 mm 2 mps 731 mmHg 79%
    03:00 +18°C° 0 mm 1 mps 731 mmHg 80%
    04:00 +16°C° 0 mm 1 mps 731 mmHg 82%
    05:00 +18°C° 0 mm 1 mps 731 mmHg 80%
    06:00 +19°C° 0 mm 1 mps 731 mmHg 78%
    07:00 +19°C° 0 mm 1 mps 732 mmHg 76%
    08:00 +21°C° 0 mm 1 mps 732 mmHg 69%
    09:00 +23°C° 0 mm 2 mps 732 mmHg 62%
    10:00 +24°C° 0 mm 2 mps 732 mmHg 55%
    11:00 +25°C° 0.1 mm 2 mps 732 mmHg 52%
    12:00 +26°C° 0.1 mm 2 mps 732 mmHg 49%
    13:00 +27°C° 0.1 mm 3 mps 732 mmHg 45%
    14:00 +27°C° 0 mm 3 mps 732 mmHg 46%
    15:00 +27°C° 0 mm 3 mps 731 mmHg 47%
    16:00 +27°C° 0 mm 3 mps 731 mmHg 48%
    17:00 +26°C° 0 mm 2 mps 731 mmHg 51%
    18:00 +26°C° 0 mm 2 mps 731 mmHg 55%
    19:00 +25°C° 0 mm 1 mps 731 mmHg 59%
    20:00 +24°C° 0 mm 1 mps 732 mmHg 63%
    21:00 +22°C° 0 mm 1 mps 732 mmHg 67%
    22:00 +19°C° 0 mm 0 mps 732 mmHg 71%
    23:00 +18°C° 0 mm 0 mps 732 mmHg 73%

    20 July, Saturday

    Time Temperature Precipitation Wind Pressure Humidity
    00:00 +18°C° 0 mm 0 mps 732 mmHg 74%
    01:00 +17°C° 0 mm 0 mps 732 mmHg 76%
    02:00 +17°C° 0 mm 0 mps 731 mmHg 78%
    03:00 +17°C° 0 mm 0 mps 731 mmHg 79%
    04:00 +16°C° 0 mm 0 mps 731 mmHg 81%
    05:00 +19°C° 0 mm 1 mps 731 mmHg 78%
    06:00 +20°C° 0 mm 1 mps 731 mmHg 75%
    07:00 +21°C° 0 mm 1 mps 731 mmHg 71%
    08:00 +23°C° 0 mm 1 mps 731 mmHg 65%
    09:00 +24°C° 0 mm 1 mps 731 mmHg 58%
    10:00 +26°C° 0 mm 2 mps 732 mmHg 52%
    11:00 +27°C° 0 mm 2 mps 731 mmHg 48%
    12:00 +28°C° 0 mm 2 mps 731 mmHg 44%
    13:00 +29°C° 0 mm 2 mps 731 mmHg 40%
    14:00 +29°C° 0 mm 3 mps 731 mmHg 39%
    15:00 +30°C° 0 mm 3 mps 731 mmHg 39%
    16:00 +30°C° 0 mm 3 mps 731 mmHg 38%
    17:00 +29°C° 0 mm 3 mps 731 mmHg 44%
    18:00 +27°C° 0 mm 3 mps 731 mmHg 50%
    19:00 +26°C° 0 mm 3 mps 731 mmHg 56%
    20:00 +25°C° 1 mm 3 mps 731 mmHg 62%
    21:00 +23°C° 1 mm 2 mps 732 mmHg 68%
    22:00 +20°C° 1 mm 2 mps 733 mmHg 74%
    23:00 +20°C° 0.8 mm 2 mps 733 mmHg 78%

    21 July, Sunday

    Time Temperature Precipitation Wind Pressure Humidity
    00:00 +19°C° 0.8 mm 2 mps 733 mmHg 82%
    01:00 +19°C° 0.8 mm 2 mps 733 mmHg 85%
    02:00 +18°C° 0.1 mm 2 mps 733 mmHg 86%
    03:00 +18°C° 0.1 mm 2 mps 733 mmHg 87%
    04:00 +18°C° 0.1 mm 2 mps 733 mmHg 88%
    05:00 +18°C° 0.1 mm 2 mps 733 mmHg 87%
    06:00 +19°C° 0.1 mm 2 mps 734 mmHg 85%
    07:00 +19°C° 0.1 mm 2 mps 734 mmHg 84%
    08:00 +21°C° 0.1 mm 2 mps 734 mmHg 77%
    09:00 +23°C° 0.1 mm 2 mps 735 mmHg 70%
    10:00 +25°C° 0.1 mm 3 mps 735 mmHg 63%
    11:00 +25°C° 0.2 mm 3 mps 735 mmHg 58%
    12:00 +26°C° 0.2 mm 3 mps 736 mmHg 54%
    13:00 +27°C° 0.2 mm 2 mps 736 mmHg 49%
    14:00 +28°C° 0.1 mm 3 mps 736 mmHg 48%
    15:00 +28°C° 0.1 mm 3 mps 736 mmHg 46%
    16:00 +28°C° 0.1 mm 3 mps 736 mmHg 44%
    17:00 +27°C° 0.1 mm 3 mps 736 mmHg 50%
    18:00 +26°C° 0.1 mm 2 mps 736 mmHg 57%
    19:00 +25°C° 0.1 mm 2 mps 736 mmHg 63%
    20:00 +24°C° 0 mm 2 mps 737 mmHg 66%
    21:00 +22°C° 0 mm 1 mps 737 mmHg 69%
    22:00 +21°C° 0 mm 1 mps 738 mmHg 73%
    23:00 +21°C° 0 mm 1 mps 738 mmHg 74%
    Show more